TimeCDT,TemperatureF,Dew PointF,Humidity,Sea Level PressureIn,VisibilityMPH,Wind Direction,Wind SpeedMPH,Gust SpeedMPH,PrecipitationIn,Events,Conditions,WindDirDegrees,DateUTC
12:55 AM,59.0,57.9,96,30.13,3.0,Calm,Calm,-,N/A,,Clear,0,2013-08-19 05:55:00
1:55 AM,59.0,57.9,96,30.13,4.0,Calm,Calm,-,N/A,,Clear,0,2013-08-19 06:55:00
2:55 AM,57.9,57.9,100,30.12,6.0,Calm,Calm,-,N/A,,Clear,0,2013-08-19 07:55:00
3:23 AM,57.2,57.2,100,30.12,2.5,Calm,Calm,-,N/A,,Clear,0,2013-08-19 08:23:00
3:33 AM,59.0,57.2,94,30.12,5.0,Calm,Calm,-,N/A,,Clear,0,2013-08-19 08:33:00
3:53 AM,55.4,55.4,100,30.12,1.0,Calm,Calm,-,N/A,,Clear,0,2013-08-19 08:53:00
3:55 AM,55.9,55.9,100,30.11,0.8,Calm,Calm,-,N/A,,Clear,0,2013-08-19 08:55:00
4:03 AM,57.2,55.4,94,30.12,1.2,Calm,Calm,-,N/A,,Clear,0,2013-08-19 09:03:00
4:07 AM,57.2,57.2,100,30.12,3.0,Calm,Calm,-,N/A,,Clear,0,2013-08-19 09:07:00
4:25 AM,57.2,55.4,94,30.12,2.0,SE,3.5,-,N/A,,Clear,140,2013-08-19 09:25:00
4:33 AM,57.2,55.4,94,30.12,1.0,Calm,Calm,-,N/A,,Clear,0,2013-08-19 09:33:00
4:55 AM,57.9,57.0,97,30.11,2.0,SSE,3.5,-,N/A,,Clear,160,2013-08-19 09:55:00
5:15 AM,55.4,55.4,100,30.12,0.8,Calm,Calm,-,N/A,,Clear,0,2013-08-19 10:15:00
5:22 AM,55.4,55.4,100,30.13,0.2,Calm,Calm,-,N/A,Fog,Fog,0,2013-08-19 10:22:00
5:33 AM,55.4,55.4,100,30.13,1.2,Calm,Calm,-,N/A,,Clear,0,2013-08-19 10:33:00
5:38 AM,55.4,55.4,100,30.13,3.0,Calm,Calm,-,N/A,,Clear,0,2013-08-19 10:38:00
5:55 AM,55.9,55.9,100,30.12,5.0,Calm,Calm,-,N/A,,Clear,0,2013-08-19 10:55:00
5:59 AM,57.2,55.4,94,30.13,1.2,Calm,Calm,-,N/A,,Clear,0,2013-08-19 10:59:00
6:07 AM,55.4,53.6,94,30.13,0.8,Calm,Calm,-,N/A,,Clear,0,2013-08-19 11:07:00
6:10 AM,55.4,55.4,100,30.13,2.0,Calm,Calm,-,N/A,,Clear,0,2013-08-19 11:10:00
6:18 AM,55.4,55.4,100,30.13,3.0,Calm,Calm,-,N/A,,Clear,0,2013-08-19 11:18:00
6:27 AM,55.4,55.4,100,30.14,2.0,Calm,Calm,-,N/A,,Clear,0,2013-08-19 11:27:00
6:31 AM,55.4,55.4,100,30.13,0.8,Calm,Calm,-,N/A,,Clear,0,2013-08-19 11:31:00
6:41 AM,55.4,55.4,100,30.13,0.2,Calm,Calm,-,N/A,Fog,Fog,0,2013-08-19 11:41:00
6:55 AM,55.9,55.9,100,30.14,0.2,Calm,Calm,-,N/A,Fog,Fog,0,2013-08-19 11:55:00
7:06 AM,55.4,55.4,100,30.14,1.2,Calm,Calm,-,N/A,,Clear,0,2013-08-19 12:06:00
7:09 AM,57.2,55.4,94,30.14,3.0,Calm,Calm,-,N/A,,Clear,0,2013-08-19 12:09:00
7:38 AM,62.6,60.8,94,30.14,2.0,Calm,Calm,-,N/A,,Clear,0,2013-08-19 12:38:00
7:55 AM,64.9,63.0,93,30.13,4.0,Calm,Calm,-,N/A,,Clear,0,2013-08-19 12:55:00
8:55 AM,73.9,64.0,71,30.13,9.0,Calm,Calm,-,N/A,,Clear,0,2013-08-19 13:55:00
9:55 AM,78.1,62.1,58,30.14,10.0,SW,4.6,-,N/A,,Clear,220,2013-08-19 14:55:00
10:55 AM,81.0,62.1,52,30.14,10.0,SSW,8.1,-,N/A,,Partly Cloudy,210,2013-08-19 15:55:00
11:55 AM,81.0,62.1,52,30.12,10.0,Variable,4.6,-,N/A,,Partly Cloudy,0,2013-08-19 16:55:00
12:55 PM,82.0,62.1,51,30.11,10.0,SSW,6.9,-,N/A,,Mostly Cloudy,210,2013-08-19 17:55:00
1:55 PM,84.9,61.0,44,30.09,10.0,SSW,9.2,17.3,N/A,,Scattered Clouds,200,2013-08-19 18:55:00
2:55 PM,86.0,62.1,44,30.08,10.0,SW,10.4,-,N/A,,Clear,230,2013-08-19 19:55:00
3:55 PM,87.1,62.1,43,30.06,10.0,SSW,8.1,16.1,N/A,,Clear,210,2013-08-19 20:55:00
4:55 PM,86.0,60.1,41,30.04,10.0,South,12.7,17.3,N/A,,Mostly Cloudy,190,2013-08-19 21:55:00
5:55 PM,84.9,57.9,40,30.04,10.0,SW,5.8,-,N/A,,Clear,220,2013-08-19 22:55:00
6:55 PM,81.0,55.9,42,30.04,10.0,South,5.8,-,N/A,,Clear,190,2013-08-19 23:55:00
7:55 PM,72.0,57.9,61,30.04,10.0,Calm,Calm,-,N/A,,Clear,0,2013-08-20 00:55:00
8:55 PM,68.0,57.9,70,30.05,10.0,Calm,Calm,-,N/A,,Clear,0,2013-08-20 01:55:00
9:55 PM,64.9,59.0,81,30.06,10.0,SSW,3.5,-,N/A,,Clear,200,2013-08-20 02:55:00
10:55 PM,66.9,60.1,79,30.06,10.0,South,4.6,-,N/A,,Clear,180,2013-08-20 03:55:00
11:55 PM,64.0,60.1,87,30.06,10.0,SSW,3.5,-,N/A,,Clear,200,2013-08-20 04:55:00